Regional Weather Roundup
Issued by NWS Midland/Odessa, TX

Skip options and go directly to product.
Home | Oldest Version | Previous Version | Current Version | All | Text Only | Save Text | Print | Product List | Glossary On

Skip product version selection by date and time.   
130
ASUS44 KMAF 060710
RWRMAF
MIDLAND AREA WEATHER ROUNDUP
NATIONAL WEATHER SERVICE MIDLAND TX
100 AM CST SAT FEB 06 2016

...IN SOUTHWEST TEXAS AND SOUTHEAST NEW MEXICO...

CITY           SKY/WX    TMP DP  RH WIND       PRES   REMARKS
ALPINE         CLEAR     26   9  50 W3        30.48F
ANDREWS        FAIR      31  18  57 NW6       30.39S WCI  26
ARTESIA        CLEAR     27  14  59 W9        30.43F WCI  17
BIG SPRING     CLEAR     30  17  57 W5        30.40S WCI  25
CARLSBAD       CLEAR     28  14  55 SW10      30.43S WCI  19
DRYDEN           N/A     42  15  33 NW10      30.40R WCI  36
FORT STOCKTON  CLEAR     34  16  47 NW7       30.43S WCI  28
GUAD PASS      CLOUDY    31   5  33 E20       30.42S WCI  19
HOBBS          CLEAR     25  16  68 NW8       30.41S WCI  16
MARFA          CLEAR     22   7  52 CALM      30.43F
MIDLAND AIRPK  CLEAR     34  21  58 W6        30.41S WCI  29
MIDLAND INTL   CLEAR     33  20  58 NW9       30.40S WCI  25
ODESSA         CLEAR     32  18  56 NW7       30.41S WCI  26
PECOS          CLEAR     31  14  49 NW6       30.45R WCI  25
PRESIDIO       FAIR      39  11  30 SW3       30.43S
SEMINOLE       CLEAR     27  17  67 NW7       30.40F WCI  19
SNYDER           N/A     33  22  62 W9        30.34S WCI  26
WINK           CLEAR     28  15  58 NW6       30.42R WCI  22
$$
...OTHER STATIONS IN TEXAS...

CITY           SKY/WX    TMP DP  RH WIND       PRES   REMARKS
ABILENE        CLEAR     40  20  44 W17G26    30.27F WCI  31
AMARILLO       CLEAR     23  16  74 W8        30.35S WCI  14
AUSTIN         MOCLDY    48  39  71 SW5       30.31F
BROWNSVILLE    CLOUDY    57  53  86 CALM      30.28F
CORPUS CHRISTI CLOUDY    57  48  72 N6        30.31S
DALLAS FTW     LGT RAIN  48  30  49 S14       30.24F
DEL RIO        CLEAR     44  36  73 N6        30.36R
EL PASO        CLEAR     36   4  26 N12       30.41F WCI  28
HOUSTON INT    CLOUDY    47  35  63 SE3       30.34F
LUBBOCK        CLEAR     27  18  69 NW10      30.35R WCI  17
SAN ANGELO     CLEAR     36  17  46 W8        30.36R WCI  30
SAN ANTONIO    PTCLDY    48  39  71 S3        30.32F
WACO           PTCLDY    44  39  82 S13       30.27F WCI  38
WICHITA FALLS  NOT AVBL
$$
...OTHER LOCATIONS IN NEW MEXICO...

CITY           SKY/WX    TMP DP  RH WIND       PRES   REMARKS
ALAMAGORDO     CLOUDY    28   1  31 CALM      30.43R
ALBUQUERQUE    CLOUDY    30  12  47 NW13      30.48R WCI  20
CANNON AFB     NOT AVBL
CLOVIS         CLEAR     23  14  68 NW10      30.38R WCI  12
HOLLOMAN AFB   CLOUDY    25   2  35 CALM      30.42S
ROSWELL        CLEAR     26  13  57 W9        30.42F WCI  17
RUIDOSO          N/A     25   0  33 NW6       30.41R WCI  18
SANTA FE       CLOUDY    21  11  65 N9        30.41R WCI  11
TRUTH OR CONSE CLEAR     30   4  33 NW6       30.44R WCI  24
TUCUMCARI      CLEAR     21  12  68 W8        30.37S WCI  11
$$

USA.gov is the U.S. government's official web portal to all federal, state and local government web resources and services.